User: anonymous   Login
Location: Unspecified
(0.0000°N, 0.0000°E)
Time: 07:05:55
(UTC+00:00)
Language:

NOAA 9 - Orbit

View from above orbital plane
View from above orbital plane
View from above satellite
View from above satellite

Ground track
Ground track

The orbit data is extracted from the following two-line orbital elements,

1 15427U 84123A   18267.77256384 -.00000012 +00000-0 +16415-4 0  9998
2 15427 098.8541 212.6758 0015914 075.7410 309.7133 14.16046537743895
Epoch (UTC): 24 September 2018 18:32:29
Eccentricity: 0.0015914
inclination: 98.8541°
perigee height: 827 km
apogee height: 850 km
right ascension of ascending node: 212.6758°
argument of perigee: 75.7410°
revolutions per day: 14.16046537
mean anomaly at epoch: 309.7133°
orbit number at epoch: 74389

The dashed part of the orbit path shows where the satellite is in the earth's shadow,  

DLR